Location: Newark
(31.5350°N, 35.0986°E)
Time: 20:46:05
(UTC+00:00)

Courier 1B - Pass Details

Date: 23 September 2019
Orbit: 962 x 1209 km, 28.3° (Epoch: 21 October)

Event Time Altitude Azimuth Distance (km) Brightness Sun altitude
Exits shadow 02:04:07 22° 220° (SW) 2,017 8.7 -18.6°
Maximum altitude 02:08:01 43° 161° (SSE) 1,376 8.3 -17.8°
Drops below altitude 10° 02:14:28 10° 92° (E) 2,850 11.2 -16.4°
Sets 02:17:23 0° 86° (E) 3,845 12.4 -15.8°
